STARLINK-30286, 57647

Orbit data source: Space-Track

STARLINK-30286, 57647 is a payload satellite owned by SpaceX/Seattle (US) in LEO that was launched on Thu, 17 Aug 2023 UTC via an FALCON 9 launch vehicle from the Air Force Eastern Test Range (AFETR). Payload-class satellites include a variety of spacecraft equipped with specific instruments for various scientific and technological missions. These include communications satellites like Starlink; space stations such as the ISS; scientific satellites like the Hubble; Earth observation satellites from companies like Planet Labs, Umbra, and HawkEye 360; GPS; miniature CubeSats for education and research; and military/defense satellites.

Loading next visibility...
Identifier
57647, 2023-122R
Orbit
LEO
Country
Flag of USUS
Related business
Manufacturer
SpaceX/Seattle
Mission
Operational Commercial Communications
Bus & Motor
STARLINK V2M, Unknown motor
Mass
730 kg wet, ~700 kg dry
Launch date (UTC)
2023-08-17 (3 years ago)
Launch vehicle
FALCON 9
Launch site
Air Force Eastern Test Range (AFETR)
Object type
Payload
Rocket body
Debris
Shape & HBR
Box + 2 Pan, 17.7 m
Radar Cross Section
33.884 m², Large (>1 m²)

Expand to show TLE details & history
Last TLE update: 2 days ago

TLE from 2 days ago
0 STARLINK-30286
1 57647U 23122R   26171.44577155  .00001332  00000-0  57911-4 0  9990
2 57647  43.0013 232.0658 0001213 270.7675  89.3037 15.27581255157924
Epoch: 2026-06-20T10:41Z
TLE epoch observation values (Epoch: 2026-06-20T10:41:54.661Z)
Latitude
-0.00008°
Longitude
162.92767°
Altitude
482.811 km
Speed
7.626 km/s
True Right ascension
15h 28m 15s
True Declination
0° 00' 00"
Sunlit
Object was in full shadow at epoch
Visualization orbit readout
Latitude
Unknown
Longitude
Unknown
Altitude
Unknown
Speed
Unknown
Apparent Right ascension
Unknown
Apparent Declination
Unknown
Sunlit
N/A
Visualization observer readout
Local Sidereal Time
21:30:46
Azimuth
Unknown
Elevation
Unknown
Doppler factor
Unknown
Orbital elements
Apogee altitude
485.823 km
Perigee altitude
484.158 km
Semi-major axis
6,863.127 km
Eccentricity
0.00012
Inclination
43.0013°
RAAN
232.0658°
Arg. of periapsis
270.7675°
True anomaly
89.3176°
Mean anomaly
89.3037°
Eccentric anomaly
89.31065°
Mean motion
3.81733 °/min
Orbital period
94.31 mins
BSTAR
0.000057911
Loading maneuver chart data...
Computing Atmospheric mass density...
Loading historical data...
Loading historical data...
Loading historical data...
Loading historical data...
Loading historical data...
Loading historical data...
Loading historical data...

Documentation

Showing up to 5 results
|